Weather History for KFLY - December, 2013

Change the Weather History Date:

Sunday, December 29, 2013

  Actual Average (KCOS) Record (KCOS)
Temperature  
Mean Temperature 20 °F 30 °F  
Max Temperature 32 °F 42 °F 64 °F (1956)
Min Temperature 14 °F 17 °F -8 °F (1983)
Degree Days  
Heating Degree Days 45 35  
Month to date heating degree days 1023  
Since 1 July heating degree days 2504  
Cooling Degree Days 0 0  
Month to date cooling degree days 0  
Year to date cooling degree days 455  
Moisture  
Dew Point 16 °F    
Average Humidity 81    
Maximum Humidity 99    
Minimum Humidity 39    
Precipitation  
Precipitation 0.00 in 0.01 in 0.20 in (1946)
Month to date precipitation 0.32  
Year to date precipitation 16.52  
Snow  
Snow 0.00 in 0.20 in 2.00 in (1946)
Month to date snowfall 5.4  
Since 1 July snowfall 13.2  
Snow Depth -    
Sea Level Pressure  
Sea Level Pressure 30.07 in    
Wind  
Wind Speed 15 mph (NNW)    
Max Wind Speed 20 mph    
Max Gust Speed 26 mph    
Visibility 9 miles    
Events Fog , Snow    
T = Trace of Precipitation, MM = Missing Value Source: NWS Daily Summary

Daily Weather History Graph

Daily Weather History Graph

Search for Another Location

Airport or City:

Trip Planner

Search our weather history database for the weather conditions in past years. The results will help you decide how hot, cold, wet, or windy it might be!

Date:

Astronomy

Dec. 29, 2013 Rise Set
Actual Time 7:16 AM MST 4:44 PM MST
Civil Twilight 6:46 AM MST 5:14 PM MST
Nautical Twilight 6:13 AM MST 5:48 PM MST
Astronomical Twilight 5:40 AM MST 6:20 PM MST
Moon 4:03 AM MST (12/29) 2:24 PM MST (12/29)
Length of Visible Light 10h 27m
Length of Day
9h 28m
Waning Crescent, 10% of the Moon is Illuminated
Dec 29
Waning Crescent
Jan 1
New
Jan 7
First Quarter
Jan 15
Full
Jan 23
Last Quarter

Hourly Weather History & Observations

Time (MST) Temp. Windchill Dew Point Humidity Pressure Visibility Wind Dir Wind Speed Gust Speed Precip Events Conditions
12:12 AM 20.7 °F 6.1 °F 15.8 °F 81% 30.10 in 7.0 mi North 17.3 mph 23.0 mph N/A Snow Light Snow
12:32 AM 20.3 °F - 14.9 °F 80% 30.10 in 7.0 mi North - - N/A Snow Light Snow
12:52 AM 19.4 °F 7.2 °F 14.2 °F 80% 30.11 in 5.0 mi NNW 11.5 mph 20.7 mph N/A Snow Light Snow
1:12 AM 18.1 °F - 13.1 °F 81% 30.10 in 4.0 mi North - - N/A Snow Light Snow
1:32 AM 18.5 °F - 13.1 °F 79% 30.10 in 7.0 mi North - - N/A   Overcast
1:52 AM 18.5 °F - 12.7 °F 78% 30.11 in 10.0 mi North - - N/A   Overcast
2:12 AM 18.5 °F 4.9 °F 12.7 °F 78% 30.11 in 10.0 mi NNW 13.8 mph 21.9 mph N/A   Overcast
2:32 AM 18.5 °F - 12.2 °F 76% 30.10 in 10.0 mi North - - N/A   Overcast
2:52 AM 18.0 °F - 11.8 °F 77% 30.10 in 10.0 mi North - - N/A   Overcast
3:12 AM 18.1 °F - 11.8 °F 76% 30.10 in 10.0 mi North - - N/A   Overcast
3:32 AM 18.5 °F - 11.8 °F 75% 30.10 in 10.0 mi North - - N/A   Overcast
3:52 AM 18.3 °F 2.6 °F 11.8 °F 76% 30.09 in 10.0 mi North 18.4 mph 26.5 mph N/A   Overcast
4:12 AM 17.6 °F 1.7 °F 11.3 °F 76% 30.09 in 10.0 mi North 18.4 mph 26.5 mph N/A   Overcast
4:32 AM 17.4 °F 1.0 °F 11.8 °F 79% 30.09 in 10.0 mi North 19.6 mph 25.3 mph N/A   Overcast
4:52 AM 17.2 °F 3.3 °F 12.0 °F 80% 30.09 in 10.0 mi North 13.8 mph 23.0 mph N/A   Overcast
5:12 AM 16.9 °F 2.3 °F 12.2 °F 82% 30.10 in 10.0 mi NNW 15.0 mph 20.7 mph N/A   Overcast
5:32 AM 16.9 °F 3.4 °F 12.2 °F 82% 30.10 in 10.0 mi North 12.7 mph 18.4 mph N/A   Mostly Cloudy
5:52 AM 17.6 °F 4.3 °F 12.9 °F 82% 30.10 in 10.0 mi NNW 12.7 mph 19.6 mph N/A   Scattered Clouds
6:12 AM 19.0 °F - 13.1 °F 78% 30.11 in 10.0 mi North - - N/A   Mostly Cloudy
6:32 AM 20.3 °F 6.6 °F 13.6 °F 75% 30.12 in 10.0 mi NNW 15.0 mph - N/A   Overcast
6:52 AM 21.0 °F 7.6 °F 13.5 °F 73% 30.12 in 10.0 mi North 15.0 mph 23.0 mph N/A   Overcast
7:12 AM 21.4 °F 11.1 °F 13.3 °F 71% 30.12 in 10.0 mi North 9.2 mph - N/A   Overcast
7:32 AM 21.2 °F - 12.9 °F 70% 30.14 in 10.0 mi North - - N/A   Overcast
7:52 AM 19.6 °F - 12.0 °F 72% 30.14 in 10.0 mi North - - N/A   Mostly Cloudy
8:12 AM 21.9 °F - 12.6 °F 67% 30.15 in 10.0 mi North - - N/A   Scattered Clouds
8:32 AM 23.9 °F - 12.9 °F 63% 30.16 in 10.0 mi North - - N/A   Clear
8:52 AM 24.4 °F - 13.6 °F 64% 30.16 in 10.0 mi North - - N/A   Mostly Cloudy
9:12 AM 25.7 °F - 14.2 °F 62% 30.17 in 10.0 mi North - - N/A   Overcast
9:32 AM 26.4 °F - 15.1 °F 62% 30.17 in 10.0 mi North - - N/A   Mostly Cloudy
9:52 AM 26.4 °F - 16.2 °F 65% 30.18 in 10.0 mi North - - N/A   Scattered Clouds
10:12 AM 25.2 °F - 18.5 °F 76% 30.17 in 10.0 mi North - - N/A   Clear
10:32 AM 24.6 °F - 19.2 °F 80% 30.17 in 10.0 mi North - - N/A   Clear
10:52 AM 23.2 °F - 18.7 °F 83% 30.16 in 10.0 mi North - - N/A   Mostly Cloudy
11:12 AM 24.8 °F - 18.9 °F 78% 30.16 in 10.0 mi North - - N/A   Overcast
11:32 AM 23.4 °F - 18.5 °F 82% 30.14 in 10.0 mi North - - N/A   Overcast
11:52 AM 23.2 °F - 18.5 °F 82% 30.13 in 10.0 mi North - - N/A   Overcast
12:12 PM 23.7 °F - 18.9 °F 82% 30.11 in 10.0 mi North - - N/A   Overcast
12:32 PM 24.3 °F - 18.9 °F 80% 30.10 in 10.0 mi North - - N/A   Overcast
12:52 PM 24.1 °F - 18.7 °F 80% 30.09 in 10.0 mi North - - N/A   Overcast
1:12 PM 23.9 °F - 18.7 °F 80% 30.08 in 10.0 mi North - - N/A   Overcast
1:32 PM 23.7 °F - 18.7 °F 81% 30.08 in 10.0 mi North - - N/A   Overcast
1:52 PM 25.7 °F - 18.0 °F 73% 30.08 in 10.0 mi North - - N/A   Scattered Clouds
2:12 PM 26.4 °F - 18.1 °F 71% 30.08 in 10.0 mi North - - N/A   Clear
2:32 PM 26.4 °F - 18.1 °F 71% 30.07 in 10.0 mi North - - N/A   Clear
2:52 PM 26.4 °F - 18.1 °F 71% 30.06 in 10.0 mi North - - N/A   Clear
3:12 PM 25.9 °F - 18.0 °F 72% 30.06 in 10.0 mi North - - N/A   Clear
3:32 PM 24.6 °F - 17.6 °F 75% 30.06 in 10.0 mi North - - N/A   Clear
3:52 PM 21.6 °F - 17.1 °F 83% 30.06 in 10.0 mi North - - N/A   Scattered Clouds
4:12 PM 20.1 °F - 17.4 °F 89% 30.05 in 10.0 mi North - - N/A   Mostly Cloudy
4:32 PM 20.1 °F - 18.1 °F 92% 30.04 in 10.0 mi North - - N/A   Overcast
4:52 PM 19.8 °F - 17.6 °F 91% 30.04 in 10.0 mi North - - N/A   Overcast
5:12 PM 20.3 °F - 18.5 °F 93% 30.04 in 10.0 mi North - - N/A   Overcast
5:32 PM 20.7 °F - 19.2 °F 94% 30.04 in 10.0 mi North - - N/A   Overcast
5:52 PM 21.2 °F - 20.1 °F 96% 30.03 in 10.0 mi North - - N/A   Overcast
6:12 PM 21.6 °F - 19.9 °F 93% 30.02 in 10.0 mi North - - N/A   Overcast
6:32 PM 21.6 °F - 20.1 °F 94% 30.02 in 10.0 mi North - - N/A   Overcast
6:52 PM 21.7 °F - 20.3 °F 94% 30.02 in 10.0 mi North - - N/A   Overcast
7:12 PM 20.7 °F - 18.9 °F 93% 30.01 in 10.0 mi North - - N/A   Overcast
7:32 PM 20.3 °F - 18.9 °F 94% 30.00 in 10.0 mi North - - N/A   Overcast
7:52 PM 19.2 °F - 17.6 °F 93% 30.00 in 10.0 mi North - - N/A   Overcast
8:12 PM 18.5 °F - 17.6 °F 96% 29.98 in 10.0 mi North - - N/A   Overcast
8:32 PM 19.0 °F - 18.5 °F 98% 29.97 in 4.0 mi North - - N/A   Overcast
8:52 PM 18.9 °F - 18.5 °F 98% 29.97 in 0.8 mi North - - N/A   Overcast
9:12 PM 19.0 °F - 18.5 °F 98% 29.96 in 1.0 mi North - - N/A   Overcast
9:32 PM 18.5 °F - 18.3 °F 99% 29.95 in 0.5 mi North - - N/A Fog Light Freezing Fog
9:52 PM 18.5 °F - 18.0 °F 98% 29.93 in 0.8 mi North - - N/A   Overcast
10:12 PM 17.2 °F 8.9 °F 16.5 °F 97% 29.93 in 1.0 mi WNW 5.8 mph - N/A   Overcast
10:32 PM 16.0 °F - 15.1 °F 96% 29.92 in 2.5 mi North - - N/A   Mostly Cloudy
10:52 PM 15.3 °F - 14.0 °F 95% 29.92 in 10.0 mi North - - N/A   Scattered Clouds
11:12 PM 14.7 °F - 13.5 °F 95% 29.92 in 10.0 mi North - - N/A   Clear
11:32 PM 20.5 °F 6.9 °F 18.5 °F 92% 29.92 in 10.0 mi WNW 15.0 mph - N/A   Clear
11:52 PM 32.0 °F 22.1 °F 9.5 °F 39% 29.92 in 10.0 mi WNW 13.8 mph 23.0 mph N/A   Clear